x

Aberporth (03502) Weather Station

12:00am - Thu 25th Dec 2014 All times are GMT.

  • Wind
    19mph, 29mph gusts
  • 空気 Temp 45°f
  • Sea Pressure 1025mb
  • Aberporth
  • Aberporth

More Historic Weather Station data

Upgrade to MSW Pro to gain access to the past 30 days of data for over 8000 Wavebouys and Weather Stations around the globe.

Join Pro

Comparision Forecast

View Surf forecast
   
Thu 12/25 12:00am 19 29 mph 1025mb 45f
Wed 12/24 11:00pm 19 31 mph 1025mb 44f
10:00pm 22 32 mph 1024mb 45f
9:00pm 22 33 mph 1024mb 45f
8:00pm 24 36 mph 1023mb 45f
7:00pm 24 34 mph 1023mb 45f
6:00pm 23 31 mph 1022mb 45f
5:00pm 22 33 mph 1021mb 45f
4:00pm 24 34 mph 1021mb 45f
3:00pm 24 36 mph 1020mb 45f
2:00pm 24 34 mph 1020mb 45f
1:00pm 28 36 mph 1020mb 45f
12:00pm 24 36 mph 1019mb 46f
11:00am 23 36 mph 1019mb 45f
10:00am 23 38 mph 1018mb 45f
9:00am 21 31 mph 1018mb 44f
8:00am 21 30 mph 1017mb 44f
7:00am 21 29 mph 1016mb 44f
6:00am 22 30 mph 1015mb 44f
5:00am 22 29 mph 1015mb 45f
4:00am 21 30 mph 1014mb 46f
3:00am 23 33 mph 1013mb 45f
2:00am 18
mph
1012mb 46f
1:00am 14 33 mph 1012mb 48f
12:00am 29 40 mph 1011mb 51f
Tue 12/23 11:00pm 30 40 mph 1010mb 52f
10:00pm 25 36 mph 1010mb 51f
9:00pm 26 38 mph 1010mb 51f
8:00pm 25 36 mph 1010mb 51f
7:00pm 23 36 mph 1010mb 51f
6:00pm 21 38 mph 1011mb 50f
5:00pm 22 37 mph 1011mb 50f
4:00pm 25 39 mph 1012mb 50f
3:00pm 26 46 mph 1012mb 51f
2:00pm 30 45 mph 1012mb 52f
1:00pm 30 46 mph 1013mb 52f
12:00pm 29 44 mph 1014mb 52f
11:00am 26 40 mph 1014mb 52f
10:00am 25 41 mph 1014mb 52f
9:00am 26 40 mph 1014mb 51f
8:00am 26 38 mph 1015mb 51f
7:00am 28 37 mph 1015mb 51f
6:00am 26 41 mph 1015mb 51f
5:00am 30 41 mph 1015mb 51f
4:00am 26 41 mph 1015mb 51f
3:00am 30 41 mph 1016mb 52f
2:00am 29 43 mph 1016mb 51f
1:00am 29 44 mph 1015mb 51f
12:00am 29 41 mph 1016mb 51f
Mon 12/22 11:00pm 26 38 mph 1016mb 51f
10:00pm 25 39 mph 1016mb 51f
9:00pm 30 44 mph 1016mb 51f
8:00pm 29 48 mph 1016mb 52f
7:00pm 39 51 mph 1016mb 52f
6:00pm 33 46 mph 1016mb 52f
5:00pm 36 48 mph 1016mb 52f
4:00pm 31 49 mph 1016mb 52f
3:00pm 31 46 mph 1015mb 53f
2:00pm 34 48 mph 1015mb 53f
1:00pm 34 45 mph 1016mb 53f
12:00pm 30 47 mph 1017mb 53f
11:00am 32 48 mph 1017mb 52f
10:00am 38 49 mph 1017mb 52f
9:00am 37 51 mph 1016mb 52f
8:00am 33 49 mph 1016mb 52f
7:00am 34 46 mph 1016mb 52f
6:00am 33 47 mph 1016mb 52f
5:00am 31 46 mph 1017mb 52f
4:00am 36 55 mph 1017mb 53f
3:00am 33 48 mph 1017mb 53f
2:00am 32 47 mph 1018mb 52f
1:00am 32 44 mph 1018mb 51f
12:00am 30 41 mph 1019mb 51f
Sun 12/21 11:00pm 29 45 mph 1019mb 51f
10:00pm 28 40 mph 1019mb 52f
9:00pm 29 44 mph 1019mb 51f
8:00pm 29 39 mph 1020mb 52f
7:00pm 25 40 mph 1020mb 51f
6:00pm 28 43 mph 1020mb 51f
5:00pm 28 40 mph 1020mb 51f
4:00pm 30 41 mph 1021mb 51f
3:00pm 26 39 mph 1022mb 51f
2:00pm 24 39 mph 1022mb 50f
1:00pm 28 40 mph 1023mb 50f
12:00pm 33 43 mph 1024mb 49f
11:00am 26 38 mph 1025mb 49f
10:00am 28 38 mph 1025mb 48f
9:00am 22 32 mph 1026mb 47f
8:00am 18 33 mph 1026mb 47f
7:00am 23 32 mph 1026mb 46f
6:00am 22 32 mph 1026mb 45f
5:00am 24 34 mph 1027mb 46f
4:00am 22 33 mph 1028mb 45f
3:00am 21 29 mph 1029mb 45f
2:00am 19
mph
1029mb 45f